Location: Bazinghen
(50.8246°N, 1.6616°E)
Time: 17:01:37
(UTC+00:00)

STARLINK-1204 - Pass Details

Date: 09 April 2020
Orbit: 548 x 551 km, 53.0° (Epoch: 29 May)

Event Time Altitude Azimuth Distance (km) Brightness Sun altitude
Rises 19:55:51 0° 290° (WNW) 2,733 9.1 -12.0°
Reaches altitude 10° 19:58:17 10° 279° (W) 1,835 7.5 -12.3°
Maximum altitude 20:01:55 30° 218° (SW) 1,015 5.0 -12.8°
Enters shadow 20:04:55 13° 162° (SSE) 1,615 5.6 -13.2°
